User: anonymous   Login
Location: Mentone
(34.5413°N, 85.5351°W)
Time: 01:08:08
(UTC-05:00)
Language:

Transit 2A Rocket - Orbit

View from above orbital plane
View from above orbital plane
View from above satellite
View from above satellite

Ground track
Ground track

The orbit data is extracted from the following two-line orbital elements,

1 00047U 60007C   16121.79088187  .00000011  00000-0  27432-4 0  9997
2 00047  66.6663 228.2448 0232966 325.3082  33.3010 14.41817975917618
Epoch (UTC): 30 April 2016 18:58:52
Eccentricity: 0.0232966
inclination: 66.6663°
perigee height: 586 km
apogee height: 918 km
right ascension of ascending node: 228.2448°
argument of perigee: 325.3082°
revolutions per day: 14.41817975
mean anomaly at epoch: 33.3010°
orbit number at epoch: 91761

The dashed part of the orbit path shows where the satellite is in the earth's shadow,  

DLR